Weather History for PAGS - April, 2014

Change the Weather History Date:

Saturday, April 12, 2014

  Actual Average Record
Temperature  
Mean Temperature 34 °F -  
Max Temperature 48 °F 45 °F 60 °F (2012)
Min Temperature 21 °F 31 °F 15 °F (1986)
Degree Days  
Heating Degree Days 30    
Moisture  
Dew Point 22 °F    
Average Humidity 58    
Maximum Humidity 93    
Minimum Humidity 32    
Precipitation  
Precipitation 0.00 in - - ()
Sea Level Pressure  
Sea Level Pressure 30.34 in    
Wind  
Wind Speed 2 mph (West)    
Max Wind Speed 8 mph    
Max Gust Speed -    
Visibility 10 miles    
Events      
Averages and records for this station are not official NWS values.
T = Trace of Precipitation, MM = Missing Value Source: NWS Daily Summary

Daily Weather History Graph

Daily Weather History Graph

Search for Another Location

Airport or City:

Trip Planner

Search our weather history database for the weather conditions in past years. The results will help you decide how hot, cold, wet, or windy it might be!

Date:

Astronomy

Apr. 12, 2014 Rise Set
Actual Time 5:58 AM AKDT 8:09 PM AKDT
Civil Twilight 5:15 AM AKDT 8:53 PM AKDT
Nautical Twilight 4:20 AM AKDT 9:48 PM AKDT
Astronomical Twilight 3:11 AM AKDT 10:59 PM AKDT
Moon 5:28 PM AKDT (4/12) 5:02 AM AKDT (4/12)
Length of Visible Light 15h 37m
Length of Day
14h 11m
Waxing Gibbous, 93% of the Moon is Illuminated
Apr 12
Waxing Gibbous
Apr 14
Full
Apr 21
Last Quarter
Apr 28
New
May 6
First Quarter

Hourly Weather History & Observations

Time (AKDT) Temp. Windchill Dew Point Humidity Pressure Visibility Wind Dir Wind Speed Gust Speed Precip Events Conditions
12:16 AM 26.6 °F - 23.0 °F 86% 30.32 in 10.0 mi North - - N/A   Clear
12:36 AM 28.4 °F - 21.2 °F 74% 30.32 in 10.0 mi North - - N/A   Clear
12:56 AM 26.6 °F - 19.4 °F 74% 30.33 in 10.0 mi North - - N/A   Clear
1:16 AM 26.6 °F - 24.8 °F 93% 30.33 in 10.0 mi North - - N/A   Clear
1:36 AM - - - N/A% 30.33 in - Calm Calm - N/A   Unknown
1:56 AM 26.6 °F - 21.2 °F 80% 30.33 in 10.0 mi Calm Calm - N/A   Clear
2:16 AM 24.8 °F - 19.4 °F 80% 30.33 in 10.0 mi Calm Calm - N/A   Clear
2:36 AM 24.8 °F 20.5 °F 19.4 °F 80% 30.34 in 10.0 mi North 3.5 mph - N/A   Clear
2:56 AM 24.8 °F - 19.4 °F 80% 30.34 in 10.0 mi Calm Calm - N/A   Clear
3:16 AM 24.8 °F - 19.4 °F 80% 30.34 in 10.0 mi Calm Calm - N/A   Clear
3:36 AM 24.8 °F - 19.4 °F 80% 30.34 in 10.0 mi Calm Calm - N/A   Clear
3:56 AM 24.8 °F - 17.6 °F 74% 30.34 in 10.0 mi Calm Calm - N/A   Clear
4:16 AM 23.0 °F - 17.6 °F 80% 30.34 in 10.0 mi Calm Calm - N/A   Clear
4:36 AM 24.8 °F 20.5 °F 19.4 °F 80% 30.34 in 10.0 mi North 3.5 mph - N/A   Clear
4:56 AM 21.2 °F 16.4 °F 17.6 °F 86% 30.34 in 10.0 mi North 3.5 mph - N/A   Clear
5:16 AM 23.0 °F - 19.4 °F 86% 30.34 in 10.0 mi Calm Calm - N/A   Clear
5:36 AM 23.0 °F - 17.6 °F 80% 30.35 in 10.0 mi Calm Calm - N/A   Clear
5:56 AM 21.2 °F - 17.6 °F 86% 30.34 in 10.0 mi Calm Calm - N/A   Clear
6:16 AM 21.2 °F 16.4 °F 15.8 °F 80% 30.35 in 10.0 mi North 3.5 mph - N/A   Clear
6:36 AM 23.0 °F - 17.6 °F 80% 30.35 in 10.0 mi Calm Calm - N/A   Clear
6:56 AM 23.0 °F - 17.6 °F 80% 30.35 in 10.0 mi Calm Calm - N/A   Clear
7:16 AM 24.8 °F - 21.2 °F 86% 30.35 in 10.0 mi Calm Calm - N/A   Clear
7:36 AM 26.6 °F - 21.2 °F 80% 30.36 in 10.0 mi Calm Calm - N/A   Clear
7:56 AM 28.4 °F - 24.8 °F 86% 30.35 in 10.0 mi Calm Calm - N/A   Clear
8:16 AM 33.8 °F - 26.6 °F 75% 30.36 in 10.0 mi Calm Calm - N/A   Clear
8:36 AM 35.6 °F - 28.4 °F 75% 30.36 in 10.0 mi Calm Calm - N/A   Clear
8:56 AM 37.4 °F - 26.6 °F 65% 30.36 in 10.0 mi Calm Calm - N/A   Clear
9:16 AM 37.4 °F - 24.8 °F 60% 30.36 in 10.0 mi Calm Calm - N/A   Clear
9:36 AM 39.2 °F - 23.0 °F 52% 30.36 in 10.0 mi Calm Calm - N/A   Clear
9:56 AM 39.2 °F - 24.8 °F 56% 30.36 in 10.0 mi Calm Calm - N/A   Clear
10:16 AM 41.0 °F - 21.2 °F 45% 30.36 in 10.0 mi Calm Calm - N/A   Clear
10:36 AM 41.0 °F 39.0 °F 23.0 °F 49% 30.36 in 10.0 mi SSW 3.5 mph - N/A   Clear
10:56 AM 42.8 °F - 23.0 °F 46% 30.35 in 10.0 mi Calm Calm - N/A   Clear
11:16 AM 42.8 °F 40.1 °F 26.6 °F 53% 30.36 in 10.0 mi SW 4.6 mph - N/A   Clear
11:36 AM 42.8 °F 39.3 °F 24.8 °F 49% 30.36 in 10.0 mi SW 5.8 mph - N/A   Clear
11:56 AM 44.6 °F 41.4 °F 26.6 °F 49% 30.36 in 10.0 mi WSW 5.8 mph - N/A   Clear
12:16 PM 44.6 °F 41.4 °F 26.6 °F 49% 30.36 in 10.0 mi SW 5.8 mph - N/A   Clear
12:36 PM 44.6 °F 41.4 °F 26.6 °F 49% 30.36 in 10.0 mi SSW 5.8 mph - N/A   Clear
12:56 PM 44.6 °F 43.1 °F 26.6 °F 49% 30.36 in 10.0 mi SSW 3.5 mph - N/A   Clear
1:16 PM 46.4 °F 43.5 °F 23.0 °F 40% 30.36 in 10.0 mi SSW 5.8 mph - N/A   Clear
1:36 PM 46.4 °F 42.9 °F 24.8 °F 43% 30.35 in 10.0 mi SSW 6.9 mph - N/A   Clear
1:56 PM 46.4 °F 42.9 °F 24.8 °F 43% 30.35 in 10.0 mi WSW 6.9 mph - N/A   Clear
2:16 PM 46.4 °F 42.9 °F 23.0 °F 40% 30.35 in 10.0 mi SSW 6.9 mph - N/A   Clear
2:36 PM 46.4 °F 43.5 °F 21.2 °F 37% 30.35 in 10.0 mi SW 5.8 mph - N/A   Clear
2:56 PM 46.4 °F - 23.0 °F 40% 30.35 in 10.0 mi Calm Calm - N/A   Clear
3:16 PM 46.4 °F 45.2 °F 23.0 °F 40% 30.34 in 10.0 mi WSW 3.5 mph - N/A   Clear
3:36 PM 48.2 °F - 21.2 °F 34% 30.34 in 10.0 mi WNW 3.5 mph - N/A   Clear
3:56 PM 48.2 °F - 21.2 °F 34% 30.33 in 10.0 mi SSW 6.9 mph - N/A   Clear
4:16 PM 48.2 °F - 21.2 °F 34% 30.33 in 10.0 mi SSW 4.6 mph - N/A   Clear
4:36 PM 48.2 °F - 21.2 °F 34% 30.32 in 10.0 mi SW 4.6 mph - N/A   Clear
4:56 PM 48.2 °F - 21.2 °F 34% 30.32 in 10.0 mi SW 5.8 mph - N/A   Clear
5:16 PM 48.2 °F - 23.0 °F 37% 30.32 in 10.0 mi WSW 3.5 mph - N/A   Clear
5:36 PM 48.2 °F - 23.0 °F 37% 30.31 in 10.0 mi WSW 4.6 mph - N/A   Clear
5:56 PM 48.2 °F - 19.4 °F 32% 30.31 in 10.0 mi NNW 3.5 mph - N/A   Clear
6:16 PM 46.4 °F 42.9 °F 19.4 °F 34% 30.30 in 10.0 mi NW 6.9 mph - N/A   Clear
6:36 PM 46.4 °F 43.5 °F 19.4 °F 34% 30.30 in 10.0 mi North 5.8 mph - N/A   Clear
6:56 PM 46.4 °F 44.3 °F 17.6 °F 32% 30.30 in 10.0 mi NW 4.6 mph - N/A   Clear
7:16 PM 44.6 °F 40.7 °F 19.4 °F 37% 30.30 in 10.0 mi NW 6.9 mph - N/A   Clear
7:36 PM 42.8 °F 38.0 °F 19.4 °F 39% 30.30 in 10.0 mi NW 8.1 mph - N/A   Clear
7:56 PM 41.0 °F 36.4 °F 19.4 °F 42% 30.30 in 10.0 mi NW 6.9 mph - N/A   Clear
8:16 PM 39.2 °F 34.2 °F 19.4 °F 45% 30.31 in 10.0 mi NW 6.9 mph - N/A   Clear
8:36 PM 39.2 °F 34.2 °F 19.4 °F 45% 30.31 in 10.0 mi NW 6.9 mph - N/A   Clear
8:56 PM 39.2 °F 35.9 °F 19.4 °F 45% 30.32 in 10.0 mi NW 4.6 mph - N/A   Clear
9:16 PM 37.4 °F 33.8 °F 21.2 °F 52% 30.32 in 10.0 mi NNW 4.6 mph - N/A   Clear
9:36 PM 35.6 °F 30.7 °F 21.2 °F 56% 30.32 in 10.0 mi NNW 5.8 mph - N/A   Clear
9:56 PM 37.4 °F 32.8 °F 23.0 °F 56% 30.32 in 10.0 mi NNW 5.8 mph - N/A   Mostly Cloudy
10:16 PM 35.6 °F 32.8 °F 23.0 °F 60% 30.31 in 10.0 mi NNW 3.5 mph - N/A   Scattered Clouds
10:36 PM 35.6 °F - 23.0 °F 60% 30.32 in 10.0 mi Calm Calm - N/A   Clear
10:56 PM 35.6 °F - 21.2 °F 56% 30.32 in 10.0 mi Calm Calm - N/A   Clear
11:16 PM 33.8 °F - 23.0 °F 65% 30.32 in 10.0 mi Calm Calm - N/A   Clear
11:36 PM 33.8 °F - 24.8 °F 70% 30.32 in 10.0 mi Calm Calm - N/A   Clear
11:56 PM 33.8 °F - 23.0 °F 65% 30.33 in 10.0 mi Calm Calm - N/A   Clear